SCP
0 0 0 0 0 0 0 0 0 0 0 0 0 0 0 0 0 0 0 0 0 0 0 0 0 0 0
0 0 0 0 0 0 0 0 0 0 0 0 0 0 0 0 0 0 0 0 0 0 0 0 0 0 0
0 0 0 0 0 0 0 0 0 0 0 0 0 0 0 0 0 0 0 0 0 0 0 0 0 0 0
0 0 0 0 0 0 0 0 0 0 0 0 0 0 0 0 0 0 0 0 0 0 0 0 0 0 0
0 0 0 0 0 0 0 0 0 0 0 0 0 0 0 0 0 0 0 0 0 0 0 0 0 0 0
-0 -0 0 0 0 0 0 0 0 0 0 0 -0 0 0 0 0 0 0 0 0 0 0 0 0 0 0
0 -0 0 -0 -0 -0 -0 -0 -0 -0 0 0 0 -0 -0 0 0 0 0 0 0 0 0 0 0 0 0
-0 0 0 0 0 -0 -0 -0 -0 -0 -0 0 0 0 -0 0 0 0 -0 0 0 0 0 0 0 0 0
0 0 0 0 0 0 -0 0 -0 -0 -0 -0 -0 0 -0 0 0 0 0 0 0 0 0 0 0 0 0
0 0 0 0 0 0 0 0 0 -0 -0 -0 -0 -0 0 -0 0 0 -0 -0 -0 0 0 0 0 0 0
0 0 0 0 0 0 0 0 0 0 -0 -0 -0 -0 0 0 0 0 0 0 -0 0 0 0 0 0 0
0 0 0 0 0 0 0 0 0 0 0 -0 -0 -0 -0 0 0 0 0 0 0 0 0 0 0 0 0
0 0 0 0 0 0 0 0 0 0 0 -0 -0 -0 -0 -0 0 0 0 0 0 0 0 0 0 0 0
0 0 0 0 0 0 0 0 0 0 0 0 -0 -0 -0 -0 0 0 0 0 0 0 0 -0 0 0 0
0 0 0 0 0 0 0 0 0 0 0 0 0 -0 -0 -0 0 0 0 0 0 0 0 0 -0 0 0
0 0 0 0 0 0 0 0 0 0 0 0 0 -0 -0 -0 0 0 0 0 0 0 0 -0 0 0 0
Wind_Speed_500mb
59 59 54 49 46 43 40 43 51 56 60 54 50 46 43 44 48 45 43 44 49 39 47 73 61 69 53
59 59 53 53 50 47 44 46 50 52 56 60 52 51 46 50 50 48 44 38 39 46 27 62 77 71 66
60 62 61 58 61 57 57 51 54 54 56 57 57 53 51 48 48 46 43 38 34 43 38 43 83 79 59
64 65 62 62 66 66 65 58 56 55 54 54 54 54 53 48 48 45 39 35 32 27 15 30 64 62 50
64 66 65 67 70 70 68 66 63 60 62 58 56 53 54 50 46 44 41 36 30 16 10 21 18 39 57
63 65 67 69 72 73 72 73 71 63 65 65 63 58 54 50 45 42 38 35 30 17 15 20 27 25 28
60 62 67 70 73 75 77 77 77 72 64 61 62 61 53 47 45 39 36 32 24 14 12 14 29 27 31
50 57 60 64 68 71 73 75 77 83 76 64 54 52 54 50 39 40 36 30 20 15 15 7 16 19 10
46 50 53 57 61 66 68 68 71 73 82 82 67 55 49 51 44 34 31 28 22 22 9 10 20 20 21
45 44 51 58 61 60 60 62 63 67 72 77 76 68 55 46 45 33 34 28 28 24 15 22 10 33 24
40 44 46 46 53 60 58 58 63 63 65 69 66 65 58 47 39 32 35 32 24 24 23 29 31 32 37
43 47 46 42 38 48 56 57 58 61 62 65 67 66 66 53 42 31 33 34 28 30 29 22 12 15 35
49 51 50 46 45 52 53 56 60 62 62 67 68 65 67 76 58 35 33 38 32 28 28 16 15 22 29
41 43 43 39 39 48 52 53 56 60 63 65 62 67 59 67 74 55 37 37 37 27 24 24 12 24 29
41 44 45 42 42 47 49 51 54 55 58 61 63 59 58 55 72 75 50 42 34 33 22 12 7 5 14
39 44 44 45 48 47 51 52 51 51 54 55 58 62 57 55 56 73 69 51 38 26 19 25 26 21 8
Wind_Direction_500mb
22 13 6 6 2 356 354 346 341 342 342 344 344 347 341 332 328 325 324 322 322 328 265 221 229 225 192
17 15 11 11 2 350 341 342 347 339 338 343 347 346 344 337 332 326 330 318 319 322 282 231 230 225 194
14 8 14 6 5 1 353 349 343 341 341 344 348 347 348 344 341 334 328 331 332 331 327 259 212 205 171
12 9 12 2 7 6 1 350 346 344 341 342 343 345 345 349 347 342 335 337 331 332 327 247 207 180 165
14 10 15 12 9 8 2 358 354 345 340 342 339 341 345 345 345 347 342 345 335 328 159 163 148 154 155
16 17 16 12 12 12 7 0 356 351 346 343 346 342 343 344 341 345 343 345 338 316 230 187 151 171 203
18 21 19 18 17 15 14 10 3 356 349 346 346 340 343 340 337 339 342 338 334 319 272 221 169 133 165
19 22 23 18 14 11 12 10 9 7 1 350 343 342 343 338 339 332 335 332 323 305 259 242 233 226 210
22 16 11 9 5 2 3 5 8 6 4 2 353 344 339 337 332 330 331 326 315 275 308 187 217 205 223
16 12 2 358 356 356 355 0 4 5 7 5 2 353 342 336 332 332 325 321 313 283 268 241 201 209 216
11 8 6 3 358 352 354 355 358 359 1 2 3 360 347 345 337 336 324 312 310 310 297 270 251 245 242
9 12 12 4 359 4 11 8 3 2 1 357 360 8 5 355 348 341 336 319 302 299 293 277 266 239 234
8 9 10 4 360 0 6 8 9 8 5 3 0 1 12 10 0 339 1 339 310 300 292 292 272 282 279
6 6 6 2 359 358 360 3 6 8 8 7 4 4 11 13 8 4 354 354 326 303 280 301 289 278 260
358 359 356 356 358 358 357 359 2 4 7 5 7 6 6 12 12 7 5 360 357 325 265 266 303 281 292
352 353 356 357 358 358 356 358 358 1 4 6 6 8 7 9 11 8 8 3 360 3 325 305 276 260 266
Wind_Speed_850mb
59 59 54 49 46 43 40 43 51 56 60 54 50 46 43 44 48 45 43 44 49 39 47 73 61 69 53
59 59 53 53 50 47 44 46 50 52 56 60 52 51 46 50 50 48 44 38 39 46 27 62 77 71 66
60 62 61 58 61 57 57 51 54 54 56 57 57 53 51 48 48 46 43 38 34 43 38 43 83 79 59
64 65 62 62 66 66 65 58 56 55 54 54 54 54 53 48 48 45 39 35 32 27 15 30 64 62 50
64 66 65 67 70 70 68 66 63 60 62 58 56 53 54 50 46 44 41 36 30 16 10 21 18 39 57
63 65 67 69 72 73 72 73 71 63 65 65 63 58 54 50 45 42 38 35 30 17 15 20 27 25 28
60 62 67 70 73 75 77 77 77 72 64 61 62 61 53 47 45 39 36 32 24 14 12 14 29 27 31
50 57 60 64 68 71 73 75 77 83 76 64 54 52 54 50 39 40 36 30 20 15 15 7 16 19 10
46 50 53 57 61 66 68 68 71 73 82 82 67 55 49 51 44 34 31 28 22 22 9 10 20 20 21
45 44 51 58 61 60 60 62 63 67 72 77 76 68 55 46 45 33 34 28 28 24 15 22 10 33 24
40 44 46 46 53 60 58 58 63 63 65 69 66 65 58 47 39 32 35 32 24 24 23 29 31 32 37
43 47 46 42 38 48 56 57 58 61 62 65 67 66 66 53 42 31 33 34 28 30 29 22 12 15 35
49 51 50 46 45 52 53 56 60 62 62 67 68 65 67 76 58 35 33 38 32 28 28 16 15 22 29
41 43 43 39 39 48 52 53 56 60 63 65 62 67 59 67 74 55 37 37 37 27 24 24 12 24 29
41 44 45 42 42 47 49 51 54 55 58 61 63 59 58 55 72 75 50 42 34 33 22 12 7 5 14
39 44 44 45 48 47 51 52 51 51 54 55 58 62 57 55 56 73 69 51 38 26 19 25 26 21 8
Wind_Direction_850mb
22 13 6 6 2 356 354 346 341 342 342 344 344 347 341 332 328 325 324 322 322 328 265 221 229 225 192
17 15 11 11 2 350 341 342 347 339 338 343 347 346 344 337 332 326 330 318 319 322 282 231 230 225 194
14 8 14 6 5 1 353 349 343 341 341 344 348 347 348 344 341 334 328 331 332 331 327 259 212 205 171
12 9 12 2 7 6 1 350 346 344 341 342 343 345 345 349 347 342 335 337 331 332 327 247 207 180 165
14 10 15 12 9 8 2 358 354 345 340 342 339 341 345 345 345 347 342 345 335 328 159 163 148 154 155
16 17 16 12 12 12 7 0 356 351 346 343 346 342 343 344 341 345 343 345 338 316 230 187 151 171 203
18 21 19 18 17 15 14 10 3 356 349 346 346 340 343 340 337 339 342 338 334 319 272 221 169 133 165
19 22 23 18 14 11 12 10 9 7 1 350 343 342 343 338 339 332 335 332 323 305 259 242 233 226 210
22 16 11 9 5 2 3 5 8 6 4 2 353 344 339 337 332 330 331 326 315 275 308 187 217 205 223
16 12 2 358 356 356 355 0 4 5 7 5 2 353 342 336 332 332 325 321 313 283 268 241 201 209 216
11 8 6 3 358 352 354 355 358 359 1 2 3 360 347 345 337 336 324 312 310 310 297 270 251 245 242
9 12 12 4 359 4 11 8 3 2 1 357 360 8 5 355 348 341 336 319 302 299 293 277 266 239 234
8 9 10 4 360 0 6 8 9 8 5 3 0 1 12 10 0 339 1 339 310 300 292 292 272 282 279
6 6 6 2 359 358 360 3 6 8 8 7 4 4 11 13 8 4 354 354 326 303 280 301 289 278 260
358 359 356 356 358 358 357 359 2 4 7 5 7 6 6 12 12 7 5 360 357 325 265 266 303 281 292
352 353 356 357 358 358 356 358 358 1 4 6 6 8 7 9 11 8 8 3 360 3 325 305 276 260 266